Location: Unspecified
(0.0000°N, 0.0000°E)
Time: 18:01:33
(UTC+02:00)

USA 116 - Visible Passes

Search period start: 28 May 2015 00:00
Search period end: 07 June 2015 00:00
Orbit: 405 x 834 km, 97.9° (Epoch: 18 November)

Date Brightness Start Highest point End Pass type
(mag) Time Alt. Az. Time Alt. Az. Time Alt. Az.
28 May 6.6 05:44:11 10° ESE 05:45:29 12° ENE 05:47:01 10° NE visible
28 May 5.2 07:21:00 11° WSW 07:21:24 11° W 07:22:20 10° W visible
29 May 5.8 05:58:28 16° ESE 05:59:52 21° ENE 06:02:35 10° NNE visible
30 May 4.7 06:12:54 26° SE 06:14:13 38° ENE 06:17:30 10° N visible
31 May 3.4 06:27:19 35° SSE 06:28:34 75° ENE 06:32:06 10° N visible
01 Jun 3.3 06:41:44 34° SSW 06:42:57 56° W 06:46:28 10° NNW visible
02 Jun 4.1 06:56:10 24° SW 06:57:21 31° W 07:00:34 10° NW visible
03 Jun 4.9 07:10:35 16° SW 07:11:49 18° W 07:14:19 10° NW visible
04 Jun 6.4 05:48:08 10° ESE 05:50:22 17° ENE 05:52:54 10° NE visible
04 Jun 5.4 07:25:14 10° WSW 07:26:19 11° W 07:27:10 10° W visible
05 Jun 5.5 06:02:26 15° SE 06:04:43 28° ENE 06:08:05 10° NNE visible
06 Jun 4.4 06:16:50 20° SSE 06:19:03 50° ENE 06:22:52 10° N visible
